カタログに戻る

BREEZE-M DEB

LostHEO
NORAD 38641·DEBRIS·🇷🇺 Russia

打ち上げ Mar 14, 2008 から Baikonur Cosmodrome

Loading…

次のパス (今後24時間)

TLE

古いSource: Space-Track

元期: Jul 24, 2015, 03:42 UTC

1 38641U 08011CQ  15205.15469590 -.00000046 +00000-0 +00000-0 0  9995
2 38641 049.4668 008.0367 6265839 039.8446 359.9521 03.02792114047417

AllMySatでBREEZE-M DEBをリアルタイム追跡

Download on the App Store